Weather History for Kalaeloa, HI

Change the Weather History Date:

Tuesday, January 7, 2014

  Actual Average (PHNL) Record (PHNL)
Temperature  
Mean Temperature 68 °F 73 °F  
Max Temperature 77 °F 80 °F 85 °F (1987)
Min Temperature 59 °F 67 °F 56 °F (1971)
Degree Days  
Heating Degree Days 0 0  
Month to date heating degree days 0  
Since 1 July heating degree days 0  
Cooling Degree Days 3 8  
Month to date cooling degree days 58  
Year to date cooling degree days 58  
Growing Degree Days 18 (Base 50)    
Moisture  
Dew Point 55 °F    
Average Humidity 65    
Maximum Humidity 83    
Minimum Humidity 45    
Precipitation  
Precipitation 0.00 in 0.09 in 6.40 in (1963)
Month to date precipitation 0.65  
Year to date precipitation 0.65  
Snow  
Snow 0.00 in - - ()
Month to date snowfall  
Since 1 July snowfall  
Snow Depth -    
Sea Level Pressure  
Sea Level Pressure 30.10 in    
Wind  
Wind Speed 2 mph (NE)    
Max Wind Speed 8 mph    
Max Gust Speed 17 mph    
Visibility 10 miles    
Events      
T = Trace of Precipitation, MM = Missing Value Source: NWS Daily Summary

Daily Weather History Graph

Daily Weather History Graph

Search for Another Location

Airport:

Trip Planner

Search our weather history database for the weather conditions in past years. The results will help you decide how hot, cold, wet, or windy it might be!

Date:

Astronomy

Jan. 07, 2014 Rise Set
Actual Time 7:11 AM HST 6:06 PM HST
Civil Twilight 6:47 AM HST 6:30 PM HST
Nautical Twilight 6:20 AM HST 6:57 PM HST
Astronomical Twilight 5:52 AM HST 7:24 PM HST
Moon 12:02 PM HST (1/7) No Moon Set
Length of Visible Light 11h 42m
Length of Day
10h 54m
Waxing Crescent, 47% of the Moon is Illuminated
Jan 7
Waxing Crescent
Jan 7
First Quarter
Jan 15
Full
Jan 23
Last Quarter
Jan 30
New

Hourly Weather History & Observations

Time (HST) Temp. Dew Point Humidity Pressure Visibility Wind Dir Wind Speed Gust Speed Precip Events Conditions
12:53 AM 64.0 °F 54.0 °F 70% 30.09 in 10.0 mi Calm Calm - N/A   Clear
1:53 AM 63.0 °F 53.1 °F 70% 30.08 in 10.0 mi NE 3.5 mph - N/A   Clear
2:53 AM 59.0 °F 54.0 °F 83% 30.08 in 10.0 mi Calm Calm - N/A   Clear
3:53 AM 61.0 °F 53.1 °F 75% 30.07 in 10.0 mi Calm Calm - N/A   Clear
4:03 AM 60.8 °F 53.6 °F 77% 30.05 in 10.0 mi Calm Calm - N/A   Scattered Clouds
4:53 AM 66.0 °F 55.0 °F 68% 30.08 in 10.0 mi Variable 3.5 mph - N/A   Clear
5:53 AM 64.9 °F 55.9 °F 73% 30.10 in 10.0 mi North 3.5 mph - N/A   Clear
6:53 AM 63.0 °F 55.0 °F 75% 30.12 in 10.0 mi Calm Calm - N/A   Partly Cloudy
7:53 AM 64.0 °F 55.0 °F 73% 30.13 in 10.0 mi Calm Calm - N/A   Clear
8:53 AM 70.0 °F 57.0 °F 63% 30.14 in 10.0 mi Calm Calm - N/A   Partly Cloudy
9:53 AM 73.0 °F 54.0 °F 51% 30.15 in 10.0 mi Variable 6.9 mph - N/A   Clear
10:53 AM 75.9 °F 57.0 °F 52% 30.14 in 10.0 mi Variable 3.5 mph - N/A   Partly Cloudy
11:53 AM 77.0 °F 57.0 °F 50% 30.11 in 10.0 mi ENE 8.1 mph - N/A   Partly Cloudy
12:53 PM 75.9 °F 57.0 °F 52% 30.08 in 10.0 mi ENE 8.1 mph - N/A   Scattered Clouds
1:53 PM 75.9 °F 55.0 °F 48% 30.05 in 10.0 mi Variable 4.6 mph - N/A   Clear
2:53 PM 75.9 °F 53.1 °F 45% 30.05 in 10.0 mi Variable 6.9 mph - N/A   Clear
3:53 PM 75.0 °F 54.0 °F 48% 30.05 in 10.0 mi ENE 8.1 mph 17.3 mph N/A   Clear
4:53 PM 73.0 °F 55.0 °F 53% 30.07 in 10.0 mi ENE 8.1 mph - N/A   Clear
5:53 PM 70.0 °F 55.0 °F 59% 30.09 in 10.0 mi Variable 5.8 mph - N/A   Clear
6:53 PM 68.0 °F 54.0 °F 61% 30.09 in 10.0 mi Variable 4.6 mph - N/A   Clear
7:53 PM 64.9 °F 55.0 °F 70% 30.12 in 10.0 mi Variable 3.5 mph - N/A   Clear
8:53 PM 64.0 °F 55.9 °F 75% 30.13 in 10.0 mi Calm Calm - N/A   Clear
9:53 PM 64.0 °F 55.0 °F 73% 30.13 in 10.0 mi Calm Calm - N/A   Clear
10:53 PM 64.0 °F 55.9 °F 75% 30.12 in 10.0 mi Calm Calm - N/A   Clear
11:53 PM 61.0 °F 55.0 °F 81% 30.11 in 10.0 mi Calm Calm - N/A   Clear